EHI
0 0 0 0 0 0 0 0 0 0 0 0 0 0 0 0 0 0 0 0 0 0 0 0 0 0 0 0 0 0 0 0 0 0 0 0 0 0 0 0 0 0 0
0 0 0 0 0 0 0 0 0 0 0 0 0 0 0 0 0 0 0 0 0 0 0 0 0 0 0 0 0 0 0 0 0 0 0 0 0 0 0 0 0 0 0
0 0 0 0 0 0 0 0 0 0 0 0 0 0 0 0 0 0 0 0 0 0 0 0 0 0 0 0 0 0 0 0 0 0 0 0 0 0 0 0 0 0 0
0 0 0 0 0 0 0 0 0 0 0 0 0 0 0 0 0 0 0 0 0 0 0 0 0 0 0 0 0 0 0 0 0 0 0 0 0 0 0 0 0 0 0
0 0 0 0 0 0 0 0 0 0 0 0 0 0 0 0 0 0 0 0 0 0 0 0 0 0 0 0 0 0 0 0 0 0 0 0 0 0 0 0 0 0 0
0 0 0 0 0 0 0 0 0 0 0 0 0 0 0 0 0 0 0 0 0 0 0 0 0 0 0 0 0 0 0 0 0 0 0 0 0 0 0 0 0 0 0
0 0 0 0 0 0 0 0 0 0 0 0 0 0 0 0 0 0 0 0 0 0 0 0 0 0 0 0 0 0 0 0 0 0 0 0 0 0 0 0 0 0 0
0 0 0 0 0 0 0 0 0 0 0 0 0 0 0 0 0 0 0 0 0 0 0 0 0 0 0 0 0 0 0 0 0 0 0 0 0 0 0 0 0 0 0
0 0 0 0 0 0 0 0 0 0 0 0 0 0 0 0 0 0 0 0 0 0 0 0 0 0 0 0 0 0 0 0 0 0 0 0 0 0 0 0 0 0 0
0 0 0 0 0 0 0 0 0 0 0 0 0 0 0 0 0 0 0 0 0 0 0 0 0 0 0 0 0 0 0 0 0 0 0 0 0 0 0 0 0 0 0
0 0 0 0 0 0 0 0 0 0 0 0 0 0 0 0 0 0 0 0 0 0 0 0 0 0 0 0 0 0 0 0 0 0 0 0 0 0 0 0 0 0 0
0 0 0 0 0 0 0 0 0 0 0 0 0 0 0 0 0 0 0 0 0 0 0 0 0 0 0 0 0 0 0 0 0 0 0 0 0 0 0 0 0 0 0
0 0 0 0 0 0 0 0 0 0 0 0 0 0 0 0 0 0 0 0 0 0 0 0 0 0 0 0 0 0 0 0 0 0 0 0 0 0 0 0 0 0 0
0 0 0 0 0 0 0 0 0 0 0 0 0 0 0 0 0 0 0 0 0 0 0 0 0 0 0 0 0 0 0 0 0 0 0 0 0 0 0 0 0 0 0
0 0 0 0 0 0 0 0 0 0 0 0 0 0 0 0 0 0 0 0 0 0 0 0 0 0 0 0 0 0 0 0 0 0 0 0 0 0 0 0 0 0 0
0 0 0 0 0 0 0 0 0 0 0 0 0 0 0 0 0 0 0 0 0 0 0 0 0 0 0 0 0 0 0 0 0 0 0 0 0 0 0 0 0 0 0
0 0 0 0 0 0 0 0 0 0 0 0 0 0 0 0 0 0 0 0 0 0 0 0 0 0 0 0 0 0 0 0 0 0 0 0 0 0 0 0 0 0 0
0 0 0 0 0 0 0 0 0 0 0 0 0 0 0 0 0 0 0 0 0 0 0 0 0 0 0 0 0 0 0 0 0 0 0 0 0 0 0 0 0 0 0
0 0 0 0 0 0 0 0 0 0 0 0 0 0 0 0 0 0 0 0 0 0 0 0 0 0 0 0 0 0 0 0 0 0 0 0 0 0 0 0 0 0 0
0 0 0 0 0 0 0 0 0 0 0 0 0 0 0 0 0 0 0 0 0 0 0 0 0 0 0 0 0 0 0 0 0 0 0 0 0 0 0 0 0 0 0
0 0 0 0 0 0 0 0 0 0 0 0 0 0 0 0 0 0 0 0 0 0 0 0 0 0 0 0 0 0 0 0 0 0 0 0 0 0 0 0 0 0 0
0 0 0 0 0 0 0 0 0 0 0 0 0 0 0 0 0 0 0 0 0 0 0 0 0 0 0 0 0 0 0 0 0 0 0 0 0 0 0 0 0 0 0
0 0 0 0 0 0 0 0 0 0 0 0 0 0 0 0 0 0 0 0 0 0 0 0 0 0 0 0 0 0 0 0 0 0 0 0 0 0 0 0 0 0 0
0 0 0 0 0 0 0 0 0 0 0 0 0 0 0 0 0 0 0 0 0 0 0 0 0 0 0 0 0 0 0 0 0 0 0 0 0 0 0 0 0 0 0
0 0 0 0 0 0 0 0 0 0 0 0 0 0 0 0 0 0 0 0 0 0 0 0 0 0 0 0 0 0 0 0 0 0 0 0 0 0 0 0 0 0 0
0 0 0 0 0 0 0 0 0 0 0 0 0 0 0 0 0 0 0 0 0 0 0 0 0 0 0 0 0 0 0 0 0 0 0 0 0 0 0 0 0 0 0
Wind_Speed
5 5 5 5 4 3 3 4 4 4 5 6 7 8 8 8 7 5 5 5 5 4 4 6 6 5 4 4 4 3 2 3 5 3 3 3 5 6 6 6 6 6 6
6 6 7 6 5 4 4 4 4 4 5 5 6 7 7 7 7 5 4 2 2 2 3 4 5 4 5 4 4 4 4 4 6 6 3 4 5 5 5 6 6 6 6
7 7 7 7 6 6 5 4 4 3 4 4 5 6 7 6 6 5 5 4 4 3 3 4 5 6 6 5 6 6 5 6 6 7 4 3 4 4 5 5 7 5 6
9 8 8 8 8 7 6 5 4 3 3 3 4 5 5 5 5 5 6 6 7 7 6 6 6 6 7 8 7 7 8 8 7 7 5 4 4 3 4 4 5 5 6
9 9 9 8 7 6 6 6 5 4 3 2 2 3 4 3 4 4 5 6 6 7 8 7 7 9 10 8 8 8 9 8 7 7 6 5 4 4 4 2 3 3 5
9 10 9 8 6 7 7 6 6 5 3 2 1 1 2 2 3 5 4 5 6 7 8 8 9 11 15 15 14 12 10 9 9 7 6 6 4 3 3 3 3 3 3
9 9 9 8 7 7 7 7 7 6 5 4 2 2 1 0 2 4 6 5 5 5 6 7 8 9 10 11 14 16 14 12 9 7 8 5 3 2 3 4 4 4 3
8 9 8 8 8 7 6 8 9 6 6 5 4 4 3 2 4 5 6 6 6 6 6 7 8 7 7 10 11 10 9 8 7 6 6 4 3 2 2 3 3 3 2
9 9 8 8 9 8 7 8 8 7 7 6 5 6 5 4 6 9 8 5 6 6 5 5 7 8 9 12 11 10 9 7 9 11 10 9 9 7 4 3 3 4 4
11 9 8 8 8 9 8 8 7 8 9 8 7 7 7 6 9 11 10 6 6 5 5 5 7 8 9 10 9 10 9 6 6 8 8 9 9 10 10 6 4 4 3
11 10 9 8 8 8 7 7 7 9 10 9 9 8 7 8 10 13 11 6 7 6 5 4 4 9 10 9 8 7 9 8 7 8 7 7 7 6 6 6 5 4 4
10 10 10 9 8 8 7 7 7 8 11 11 10 8 6 7 10 12 13 10 9 7 6 4 5 10 11 11 9 11 12 9 7 7 6 5 5 5 4 5 5 5 4
10 11 11 10 8 7 6 7 6 7 8 10 11 10 8 6 7 12 13 13 12 6 6 8 10 12 11 9 11 12 9 7 7 6 6 4 3 2 2 3 4 4 5
11 11 10 9 9 8 6 5 5 6 7 10 12 11 10 8 7 8 8 8 9 8 7 9 11 11 9 9 8 6 5 5 6 5 4 3 2 3 4 3 3 3 5
11 10 10 9 9 8 7 6 7 7 8 10 12 13 13 12 12 15 12 10 9 9 10 6 5 5 5 5 5 5 5 5 5 3 4 4 4 4 3 3 3 3 4
10 9 8 7 7 7 7 8 9 10 12 15 15 15 14 15 18 18 17 17 17 18 11 7 6 7 7 7 6 5 4 4 4 4 4 4 4 4 4 3 3 3 3
11 10 7 7 7 8 7 7 8 8 9 13 16 17 16 18 20 19 18 18 19 17 8 8 8 8 7 7 6 6 5 4 4 5 5 4 4 4 3 3 3 3 3
11 13 11 7 7 7 7 7 6 7 6 6 10 16 18 20 21 20 19 16 10 8 7 9 9 8 8 7 7 6 5 5 4 4 4 4 4 3 3 3 3 3 2
10 8 8 7 7 7 8 7 7 8 7 6 7 9 14 17 18 20 19 10 13 11 8 9 9 8 8 8 7 7 7 6 6 5 5 5 4 4 3 3 3 3 2
9 15 13 7 7 7 7 7 7 6 6 7 10 11 11 11 10 12 10 9 11 11 10 9 9 8 8 8 8 8 7 7 7 6 5 5 4 4 4 4 4 3 2
7 9 14 9 7 7 7 7 6 5 5 7 9 12 17 14 14 15 13 11 11 11 10 9 9 9 8 8 8 9 10 8 7 7 6 6 5 5 4 4 4 4 3
6 6 7 7 6 7 7 7 6 5 6 8 9 11 17 13 12 13 12 11 11 10 10 10 9 9 9 9 10 10 10 9 8 7 7 7 6 6 5 5 5 4 4
6 7 7 7 6 7 8 7 6 5 6 9 10 11 12 11 12 12 13 11 10 9 9 9 9 9 8 8 9 10 11 11 10 9 9 8 7 7 6 7 7 6 6
6 7 7 6 6 6 6 6 5 5 7 9 11 11 12 12 12 12 12 10 10 9 9 9 10 12 14 10 9 9 10 10 10 9 12 10 9 8 8 8 8 9 8
5 6 6 6 6 6 6 5 5 6 8 10 10 11 11 11 11 11 10 10 11 10 11 11 9 11 15 16 13 11 11 11 10 9 9 9 10 10 10 10 9 8 8
5 5 5 5 5 5 5 5 5 7 8 10 10 10 11 11 11 10 10 10 10 9 10 10 11 13 14 13 15 14 11 11 11 11 9 9 10 10 10 9 11 10 9
Wind_Direction
299 278 264 253 245 249 260 275 289 299 310 319 323 323 322 320 314 299 279 260 244 234 218 208 206 190 180 175 166 156 147 131 121 96 52 40 56 65 62 66 69 71 70
308 287 268 258 248 247 256 267 280 296 310 319 326 331 336 338 337 333 321 300 242 217 196 178 169 157 146 138 134 129 125 118 123 118 72 49 55 57 63 63 59 64 66
319 301 280 262 249 245 248 257 268 285 310 327 337 342 345 350 359 8 22 41 57 70 96 122 126 125 116 110 109 109 108 106 104 113 96 61 61 51 61 63 59 51 54
326 313 293 271 252 244 240 243 251 262 289 321 338 342 349 2 14 25 43 56 61 61 61 72 87 101 109 112 107 109 110 105 102 103 98 77 63 47 63 66 65 49 42
328 321 305 290 265 247 238 235 238 245 256 287 329 344 352 6 26 36 54 66 69 68 62 62 74 93 97 102 112 113 112 109 104 101 97 86 67 58 57 49 75 62 50
327 323 317 308 283 256 243 233 229 233 238 244 268 326 360 18 42 57 71 77 79 79 78 73 78 84 89 89 93 95 104 112 111 105 99 95 84 71 62 62 64 57 41
318 321 324 316 299 276 254 236 228 223 216 214 211 192 162 98 94 85 76 78 77 80 87 89 91 92 95 97 88 82 79 84 98 113 107 105 103 96 95 81 70 70 59
305 311 317 318 306 291 265 244 233 219 209 206 199 188 172 172 151 129 102 85 78 70 75 94 105 100 105 108 101 91 81 73 83 90 102 102 103 109 100 101 98 91 73
291 295 303 311 311 299 277 258 237 218 211 203 193 183 175 174 165 147 126 105 92 77 72 89 109 107 115 114 108 103 92 80 79 86 85 81 78 76 95 99 82 78 55
280 281 286 292 301 302 287 272 246 219 213 202 192 187 179 174 169 154 138 127 114 103 85 79 98 116 121 121 121 120 115 110 107 92 74 63 65 61 58 66 85 88 71
272 274 278 279 284 292 294 284 259 226 208 200 190 185 182 176 172 165 156 144 141 133 122 108 100 116 115 116 119 121 130 126 111 102 91 77 68 61 56 55 56 74 77
277 275 274 274 280 295 299 294 271 234 209 198 187 179 183 178 173 177 172 158 149 141 139 132 120 118 112 110 108 117 119 114 107 100 92 81 73 63 55 58 62 65 66
277 272 272 273 270 273 283 291 286 249 214 198 187 183 181 179 179 180 176 162 150 132 138 138 128 117 106 102 110 115 114 111 109 105 101 88 72 59 69 71 58 62 68
272 272 271 271 272 269 271 275 278 263 224 203 188 184 177 176 175 169 167 156 139 124 123 119 111 104 97 98 98 96 100 110 116 114 109 99 93 85 67 61 59 51 56
269 269 269 267 266 268 268 266 267 261 237 213 195 184 177 181 185 171 164 162 158 148 135 121 118 120 116 111 104 101 105 112 107 113 119 117 105 90 75 66 71 71 65
264 265 265 266 266 266 271 279 264 261 249 226 207 187 184 180 168 168 166 160 151 147 139 145 148 151 151 148 141 130 127 129 128 130 128 123 114 106 98 88 85 83 76
253 257 259 260 263 266 267 276 287 289 252 216 200 187 177 164 163 166 161 151 151 149 146 158 161 164 164 162 159 154 153 150 146 144 136 132 126 120 115 109 106 97 83
251 257 260 253 255 260 259 263 271 277 259 207 193 183 170 163 163 157 143 133 150 166 165 168 170 171 170 169 169 163 155 152 155 153 147 145 144 137 133 131 130 124 107
252 251 251 251 252 256 256 260 264 262 241 197 170 171 170 159 152 151 151 159 168 177 175 174 174 174 175 175 174 171 167 168 168 164 163 162 159 152 151 154 151 142 137
248 254 257 252 251 255 254 259 256 246 225 190 178 167 154 147 152 165 176 173 173 177 177 176 177 178 177 177 176 174 173 175 175 178 177 176 174 174 174 175 175 172 171
243 248 259 260 249 250 254 257 242 229 211 190 177 168 165 168 169 174 181 180 178 178 177 178 179 180 179 176 177 180 182 185 188 189 188 186 185 187 190 187 186 187 181
236 235 239 244 247 249 256 251 232 221 209 189 167 161 168 169 169 173 180 184 183 180 177 176 180 183 181 180 180 183 188 193 195 197 197 195 195 196 192 192 193 191 193
230 234 239 239 240 247 253 245 227 216 198 176 163 161 172 174 172 175 180 181 178 176 175 176 179 184 185 185 185 187 192 199 201 199 199 200 201 201 199 200 200 199 203
226 230 236 239 239 242 246 237 217 203 184 168 163 166 173 176 175 177 177 175 175 175 176 179 185 189 188 187 191 197 203 204 201 202 203 205 206 207 205 208 209 209 208
223 226 230 234 236 240 241 224 205 196 176 166 165 168 173 175 175 175 173 173 173 176 180 183 187 191 194 195 196 202 205 201 201 201 201 208 214 213 211 213 213 209 205
221 226 228 229 234 235 226 210 197 184 170 165 165 167 170 174 174 172 170 171 175 178 182 187 193 194 195 200 205 205 201 200 201 201 204 209 215 219 216 218 216 210 202